India Forums Logo

Computers, Science, Technology

India Forums > Forum Index > Computers, Science, Technology
Place to talk about computers, the internet, and any science and tech related stuff.
...
<< | 4 | 5 | 6 | 7 | 8 | 9 | 10 | 11 | 12 | 13 | 14 | 15 | 16 | 17 | 18 | 19 | 20 | >>
TIDTopic SubjectStart DateLast Entry
1744278Dumbs use Internet Explorer, says Study8/1/2011 5:29:11 AM8/1/2011 5:29:11 AM
1744958LOVE Button: A New Addition by Wikipedia8/1/2011 11:58:48 PM8/1/2011 11:58:48 PM
1745789Internet Jobs: Fake or Real????8/2/2011 11:29:25 PM8/4/2011 3:48:47 AM
1747579MCA is equivalent to ME (Computer Sc and Engg)8/4/2011 8:42:28 PM8/4/2011 8:42:28 PM
1747580MCA with ME (Computer Science and Engineering)8/4/2011 8:43:32 PM8/4/2011 8:43:32 PM
1747654How to import DVD to Final Cut Express on Mac .8/4/2011 11:57:36 PM8/4/2011 11:57:36 PM
1747854Aamir Vs Sanjay Dutt in Munnabhai Series?8/5/2011 5:00:12 AM8/5/2011 5:00:12 AM
1748549Fraud! Fraud! Fraud!8/5/2011 11:25:51 PM8/5/2011 11:25:51 PM
1748575Fraud! Fraud! Fraud!8/6/2011 12:18:29 AM8/6/2011 12:18:29 AM
1750581How can we convert MKV to iMovie on Mac?I got it.8/8/2011 8:52:05 PM8/8/2011 8:52:05 PM
1751544Put 1080p MKV to Galaxy Tab 10.18/9/2011 9:20:02 PM8/9/2011 9:20:02 PM
1752608Legit Vendor Of Dumps CC Bank Logins Wu Transfer8/10/2011 10:20:18 PM8/10/2011 10:20:18 PM
1752612Legit Vendor Of Dumps CC Bank Logins Wu Transfer8/10/2011 10:29:17 PM8/10/2011 10:29:17 PM
1752706UC Browser 7.8 for Blackberry Released8/11/2011 1:21:00 AM8/11/2011 1:21:00 AM
1758300How to rip Blu-ray to iTuens?8/17/2011 9:36:08 PM8/17/2011 9:36:08 PM
1758812Online jobs in Pakistan (3032)8/18/2011 5:10:57 AM8/18/2011 5:10:57 AM
1761990How to convert AVI to iPhone with AVI to iPhone Vi8/21/2011 12:39:41 AM11/5/2012 11:53:02 AM
1763319How to Convert DWG to PDF?8/22/2011 8:01:27 PM8/22/2011 8:01:27 PM
1763477RIM unveils New BlackBerry Curve series8/23/2011 3:28:09 AM8/23/2011 3:28:09 AM
1764462Prakash Jha to make Film on Anna Hazare's Movement8/24/2011 3:53:49 AM8/24/2011 3:53:49 AM
1765337TATA Photon8/25/2011 1:06:23 AM8/25/2011 1:06:23 AM
1765340TATA Photon8/25/2011 1:08:47 AM8/25/2011 1:08:47 AM
1765343TATA Photon Plus8/25/2011 1:11:03 AM8/25/2011 1:11:03 AM
1767124Looking for domain name and web hosting service8/26/2011 10:31:52 PM8/26/2011 10:31:52 PM
1769489How to convert AVI to iPhone with AVI to iPhone Vi8/30/2011 2:26:04 AM2/8/2012 12:51:01 AM
1769497How to convert MKV to iPhone with Leawo Free MKV t8/30/2011 2:38:51 AM2/8/2012 12:58:52 AM
1769505How to rip DVD to iPhone with Leawo DVD to iPhone8/30/2011 2:47:11 AM2/8/2012 12:55:11 AM
1770386Enjoy high quality videos on your everyday way hom8/31/2011 12:02:24 AM8/31/2011 12:02:24 AM
1770404Far away from the confusion of editing mts8/31/2011 12:50:12 AM8/31/2011 12:50:12 AM
1770451Easy methods to import DVD to Final Cut Share.8/31/2011 1:19:46 AM8/31/2011 1:19:46 AM
1770505on how to convert mkv files to HTC Desire HD8/31/2011 2:57:35 AM8/31/2011 2:57:35 AM
1770508How to Play DVD Movies on Android Phone for Mac OS8/31/2011 3:03:20 AM8/31/2011 3:03:20 AM
1771861Earn upto Rs. 9,000 pm without investing a single9/1/2011 10:52:34 AM9/1/2011 10:52:34 AM
1774947Poonam Pandey goes semi-nude on Twitter9/6/2011 4:01:53 AM9/6/2011 4:01:53 AM
1776872String Decration Light9/8/2011 3:04:39 AM9/8/2011 3:04:39 AM
1779031need help and fast9/10/2011 7:44:54 AM9/10/2011 7:44:54 AM
1782263Solidworks 2012 Launch by Beacon at Innovation Day9/14/2011 1:12:51 AM9/14/2011 1:12:51 AM
1786274Hello,.9/16/2011 3:25:43 AM9/16/2011 3:25:43 AM
1786287Samsung i5500 Corby Galaxy 5 Android Smartphone Re9/16/2011 3:31:41 AM2/8/2012 1:03:44 AM
1786329Apple iPhone 4 review9/16/2011 3:58:20 AM2/8/2012 1:02:30 AM
1786536how to find telemarketing agent9/16/2011 6:27:45 AM9/16/2011 6:27:45 AM
1790239Best DVD Ripping software on Mac OS X Lion9/18/2011 12:30:31 AM4/9/2012 9:33:03 PM
1797015how to install C++9/21/2011 5:15:14 AM9/21/2011 5:15:14 AM
1829562memory card help9/26/2011 6:35:32 AM9/26/2011 6:35:32 AM
1856656Photo Slideshow Director for Ipad ,ipnone9/28/2011 11:53:30 PM9/28/2011 11:53:30 PM
1857821Watch dvd on iphone, that's goood...9/29/2011 2:31:40 AM9/29/2011 2:31:40 AM
1857876watch a mess of avi on your Apple stuff, you can d9/29/2011 2:38:19 AM9/29/2011 2:38:19 AM
1903348iPhone games10/3/2011 10:16:14 PM10/3/2011 10:16:14 PM
1907564Let's talk iPhone - Are you excited?10/4/2011 9:24:09 AM10/21/2011 1:06:07 AM
1910492R.I.P Steve Jobs (apple founder)10/5/2011 6:04:42 PM9/17/2012 4:39:43 AM
1912979navya10/8/2011 5:43:38 AM10/8/2011 5:43:38 AM
1913535Famous school/college dropouts10/9/2011 1:22:31 AM10/9/2011 1:22:31 AM
1919065Treasured ways to rock your event10/14/2011 12:55:26 AM10/14/2011 12:55:26 AM
1920705Pic Cropper10/15/2011 11:34:13 AM10/15/2011 11:34:13 AM
192413710 Reasons Why Your Computer Runs Slow10/19/2011 6:33:57 AM11/5/2011 10:53:11 AM
1924139How to Secure Wireless Networks10/19/2011 6:36:11 AM10/19/2011 6:36:11 AM
1924141Top 5 Free Anti-Virus 201110/19/2011 6:38:29 AM10/19/2011 6:38:29 AM
1924885Flowers to shower a happy fiesta10/20/2011 1:36:21 AM10/20/2011 1:36:21 AM
1933119eRepublik - India needs YOU!10/28/2011 5:32:22 AM2/11/2012 1:45:43 PM
1934841Selling Bank logins,Fullz,Paypal,TrackS,cc,MORE10/30/2011 7:22:17 AM10/30/2011 7:22:17 AM
1936182Questions on remote desktop, active directory10/31/2011 5:21:28 PM10/31/2011 5:21:28 PM
1941974DVD Ripping/Editing Software for Mac OS X Lion11/4/2011 2:02:28 AM11/4/2011 6:17:18 AM
1942008Synclo11/4/2011 2:24:07 AM11/4/2011 2:24:07 AM
1942138Flip video converter for Mac OSX Lion was released11/4/2011 3:41:06 AM11/4/2011 3:41:06 AM
1942144How do I edit MPEG2/MPG into Final Cut Pro11/4/2011 3:44:24 AM11/4/2011 3:44:24 AM
1946085part time jobs11/5/2011 10:35:17 AM11/5/2011 10:35:17 AM
1946499Would you buy an iphone 4s now?11/5/2011 5:06:11 PM2/8/2012 1:08:57 AM
1947110Free Wordpress Themes and Free Joomla Templates11/6/2011 1:37:21 AM11/6/2011 1:37:21 AM
1951705How to copy blu-ray to blank bluray disc?11/8/2011 11:48:15 PM11/8/2011 11:48:15 PM
1951728Convert dvd to iPad format11/9/2011 12:16:41 AM11/9/2011 2:29:16 AM
1958105Products from the US?11/12/2011 11:27:31 PM11/12/2011 11:27:31 PM
1958882Where can I buy discounted DVD Ripper, Video Conve11/13/2011 7:56:34 AM11/13/2011 7:56:34 AM
1983059Anything to doo with Symbian, Windows & technology11/16/2011 9:37:21 PM11/16/2011 9:37:21 PM
2015170Hitman 5 : Absolution11/18/2011 4:42:18 PM11/18/2011 4:42:18 PM
2055911How many of you like playing PS3/PS2/Xbox/PC games11/21/2011 2:09:53 AM11/21/2011 2:09:53 AM
<< | 4 | 5 | 6 | 7 | 8 | 9 | 10 | 11 | 12 | 13 | 14 | 15 | 16 | 17 | 18 | 19 | 20 | >>